Regional Weather Roundup
Issued by NWS

Home | Current Version | Previous Version | Text Only | Print | Product List | Glossary On
Versions: 1 2 3 4 5 6 7 8 9 10 11 12 13 14 15 16 17 18 19 20 21 22 23 24 25 26 27 28 29 30 31 32 33 34 35 36 37 38 39 40 41 42 43 44 45 46 47 48 49 50
000
ASUS43 KMPX 010910
RWRMN
WEATHER ROUNDUP FOR MINNESOTA
NATIONAL WEATHER SERVICE TWIN CITIES/CHANHASSEN MN
400 AM CDT FRI AUG 01 2014


NOTE: "FAIR" INDICATES FEW OR NO CLOUDS BELOW 12,000 FEET WITH NO
SIGNIFICANT WEATHER AND/OR OBSTRUCTIONS TO VISIBILITY. N/A MEANS
CURRENT SKY AND/OR WEATHER CONDITIONS ARE NOT AVAILABLE.

MNZ060>063-068>070-011000-
   Twin Cities Metro

CITY           SKY/WX    TMP DP  RH WIND       PRES   REMARKS
TWIN CITIES    CLEAR     67  60  78 S5        30.02S
ST PAUL        CLEAR     64  62  93 CALM      30.02R
CRYSTAL        CLEAR     64  58  80 CALM      30.01R
BLAINE         CLEAR     64  61  88 CALM      30.02R
LAKEVILLE      CLEAR     57  55  94 CALM      30.03S
EDEN PRAIRIE   CLEAR     62  59  90 SW5       30.02R
SOUTH ST PAUL  CLEAR     67  58  74 CALM      30.02R
LAKE ELMO      FAIR      59  57  94 CALM      30.03R
$$
MNZ001>005-007-008-013>017-022>024-027-028-011000-
   Northwest Minnesota

CITY           SKY/WX    TMP DP  RH WIND       PRES   REMARKS
BEMIDJI        CLEAR     55  53  92 CALM      30.03S
HALLOCK        CLEAR     59  55  88 N5        30.03S
ROSEAU         CLEAR     57  54  88 W3        30.03R
WARROAD        CLEAR     55  52  88 CALM      30.03R
THIEF RVR FALL CLEAR     61  59  94 CALM      30.03S
CROOKSTON      FOG       61  57  88 CALM      30.03S VSB 3/4
FOSSTON        PTCLDY    57  54  88 CALM      30.04S FOG
DETROIT LAKES  PTCLDY    63  61  94 CALM      30.05S
MOORHEAD       PTCLDY    63  63 100 CALM      30.03S
PARK RAPIDS    CLEAR     57  55  93 CALM      30.03S
$$
MNZ006-009>011-018-025>026-011000-
   North Central Minnesota

CITY           SKY/WX    TMP DP  RH WIND       PRES   REMARKS
BAUDETTE       CLEAR     58  56  93 CALM      30.03R
FLAG ISLAND    CLEAR     66  61  82 CALM      30.01S
INTL FALLS     CLEAR     48  47  96 CALM      30.02R
WASKISH        CLEAR     55  54  94 CALM      30.02R FOG
BIG FORK       CLEAR     52  50  93 CALM      30.03S
LONGVILLE      PTCLDY    55  54  94 CALM      30.02S FOG
GRAND RAPIDS     N/A     55  52  88 CALM      30.03S VSB 1/2
CRANE LAKE     CLEAR     46  46 100 CALM      30.04R FOG
ORR            CLEAR     50  46  87 CALM      30.01S
COOK           CLEAR     48  48 100 CALM      30.03S
$$
MNZ012-019>021-037-011000-
   Northeast Minnesota

CITY           SKY/WX    TMP DP  RH WIND       PRES   REMARKS
DULUTH         PTCLDY    57  52  83 CALM      30.02R
ELY            CLEAR     46  46 100 CALM      30.03R
HIBBING        CLEAR     48  46  93 CALM      30.02F FOG
EVELETH        FOG       48  46  93 CALM      30.03S VSB 1
DULUTH HARBOR  CLEAR     61  59  94 CALM      30.01R
TWO HARBORS    CLEAR     50  45  81 CALM      29.99S
SILVER BAY     CLEAR     46  46 100 CALM      30.00S
GRAND MARAIS     N/A     59  51  75 NE5       30.01R
G MARAIS ARPRT CLEAR     50  45  81 N3        30.04S
$$
MNZ029>031-032-039>041-046>048-054>057-064-011000-
   West Central Minnesota

CITY           SKY/WX    TMP DP  RH WIND       PRES   REMARKS
FERGUS FALLS   CLEAR     63  61  94 CALM      30.03S
WHEATON        CLEAR     59  57  94 CALM      30.06R
MORRIS         CLEAR     57  55  94 CALM      30.04S
ALEXANDRIA     PTCLDY    63  61  93 CALM      30.06R
ELBOW LAKE     FAIR      61  59  92 CALM      30.04S
WADENA         CLEAR     55  55 100 CALM      30.04S FOG
GLENWOOD       CLEAR     61  59  94 W3        30.05S
APPLETON       CLEAR     59  57  94 CALM      30.04S FOG
BENSON         FOG       55  55 100 CALM      30.05R VSB 3/4
ORTONVILLE     CLEAR     63  55  77 W6        30.05R
MADISON        CLEAR     61  57  88 W3        30.05S
WILLMAR        FAIR      61  55  82 CALM      30.06R
$$
MNZ033>034-036-042>043-049>051-058-059-011000-
   Central Minnesota

CITY           SKY/WX    TMP DP  RH WIND       PRES   REMARKS
ST CLOUD       CLEAR     61  58  90 CALM      30.02R
SAUK CENTRE    FAIR      57  56  94 CALM      30.05R
PAYNESVILLE    CLEAR     53  53  99 SW5       30.05R FOG
AITKIN         HAZE      55  48  76 CALM      30.02R VSB 1/2
PINE RIVER     PTCLDY    54  52  94 CALM      30.06S FOG
BRAINERD       CLEAR     55  55 100 CALM      30.03S FOG
STAPLES        CLEAR     57  55  94 CALM      30.04R
LONG PRAIRIE   FAIR      57  57 100 CALM      30.05R FOG
LITTLE FALLS   CLEAR     55  55 100 CALM      30.03S FOG
LITCHFIELD       N/A     64  61  88 CALM      30.05R
BUFFALO        CLEAR     62  57  84 CALM      30.04R
MAPLE LAKE     CLEAR     61  59  92 CALM      30.04R
$$
MNZ037-044-045-052-053-011000-
   East Central Minnesota

CITY           SKY/WX    TMP DP  RH WIND       PRES   REMARKS
PRINCETON      CLEAR     57  57 100 CALM      30.02S FOG
MORA             N/A     57  55  94 CALM      30.03R FOG
CAMBRIDGE      CLEAR     63  54  72 CALM      30.00S
RUSH CITY      MOCLDY    57  56  95 CALM      30.01S
MOOSE LAKE     FOG       54  54 100 CALM      30.00R VSB 1/2
HINCKLEY       FAIR      55  55 100 CALM      30.01R
CLOQUET        CLEAR     54  52  94 CALM      30.02R
MCGREGOR       CLEAR     54  54 100 CALM      30.03R
$$
MNZ071>073-080-081-089-090-097-098-011000-
   Southwest Minnesota

CITY           SKY/WX    TMP DP  RH WIND       PRES   REMARKS
MONTEVIDEO     CLEAR     61  55  82 NW6       30.05S
GRANITE FALLS  CLEAR     55  53  94 SW5       30.07R
CANBY          CLEAR     61  55  81 SW3       30.06S
MARSHALL       CLEAR     57  54  88 W3        30.05R
REDWOOD FALLS  CLEAR     62  57  83 NW3       30.05R
OLIVIA         CLEAR     57  54  88 CALM      30.04R
PIPESTONE      CLEAR     59  54  82 CALM      30.08S
WINDOM         PTCLDY    55  54  94 CALM      30.07R FOG
WORTHINGTON    CLEAR     57  55  94 SW6       30.09R
JACKSON        CLEAR     61  57  88 SW3       30.07S
TRACY          CLEAR     62  56  82 SW6       30.07R
SLAYTON        CLEAR     56  55  96 CALM      30.09R
$$
MNZ065>067-074>077-082>085-091>093-011000-
   South Central Minnesota

CITY           SKY/WX    TMP DP  RH WIND       PRES   REMARKS
MANKATO        CLEAR     59  54  82 CALM      30.05R
NEW ULM        CLEAR     59  57  94 CALM      30.05R
ST JAMES       CLEAR     59  55  88 SW5       30.06S
FAIRMONT       CLEAR     59  54  82 CALM      30.06S
GLENCOE        CLEAR     63  57  80 CALM      30.03S
FARIBAULT      CLEAR     59  54  82 CALM      30.05R
OWATONNA       CLEAR     57  54  88 CALM      30.05S
WASECA         CLEAR     54  50  87 CALM      30.07S
ALBERT LEA     CLEAR     57  55  94 CALM      30.06S
$$
MNZ078>079-086>088-094>096-011000-
   Southeast Minnesota

CITY           SKY/WX    TMP DP  RH WIND       PRES   REMARKS
ROCHESTER      CLEAR     60  54  80 SW7       30.07S
RED WING       CLEAR     57  57 100 CALM      30.02S
STANTON        CLEAR     59  55  88 CALM      30.03R
DODGE CENTER   CLEAR     57  55  94 W5        30.06S
WINONA         CLEAR     59  57  94 CALM      30.04R
AUSTIN         CLEAR     55  54  94 CALM      30.06S
PRESTON        CLEAR     60  57  92 SW5       30.07R
$$
ABBREVIATIONS USED IN REMARKS
   TC - TEMPERATURES IN CELSIUS
  WCI - WIND CHILL INDEX
   HX - HEAT INDEX
  VSB - VISIBILITY
$$



USA.gov is the U.S. government's official web portal to all federal, state and local government web resources and services.